Weather reports worldwide

Advertisment
Barcelona/Aeropuerto, Spain (8181): temperature & dewpoint: 11.06.2019 20:00:00 - 17.06.2019 20:00:00 (CEST)Barcelona/Aeropuerto, Spain (8181): wind speed: 11.06.2019 20:00:00 - 17.06.2019 20:00:00 (CEST)Barcelona/Aeropuerto, Spain (8181): wind direction: 11.06.2019 20:00:00 - 17.06.2019 20:00:00 (CEST)Barcelona/Aeropuerto, Spain (8181): reduced air pressure: 11.06.2019 20:00:00 - 17.06.2019 20:00:00 (CEST)Barcelona/Aeropuerto, Spain (8181): visibility: 11.06.2019 20:00:00 - 17.06.2019 20:00:00 (CEST)
Date & Time tt [°C] td [°C] ff [km/h] ff [kn] dd ppp [hPa] vv [km]
17.06.2019 20:00:00 - - - - - - -
17.06.2019 19:00:00 23,3 17,9 28 15 SW 1015,3 29
17.06.2019 18:00:00 23,3 19,2 28 15 SW 1015,4 25
17.06.2019 17:00:00 23,7 18,3 31 17 WSW 1015,9 30
17.06.2019 16:00:00 23,5 18,6 31 17 SW 1016,2 25
17.06.2019 15:00:00 23,5 18,9 29 16 SW 1016,4 26
17.06.2019 14:00:00 23,6 17,9 24 13 SW 1016,6 3,0
17.06.2019 13:00:00 24,2 17,9 22 12 WSW 1016,6 30
17.06.2019 12:00:00 24,3 17,7 13 7 SW 1016,7 20
17.06.2019 11:00:00 24,7 17,4 9 5 SW 1017,0 30
17.06.2019 10:00:00 23,3 17,4 5 3 W 1017,3 30
17.06.2019 09:00:00 21,6 15,6 4 2 N 1017,5 21
17.06.2019 08:00:00 19,5 14,1 9 5 N 1017,5 22
17.06.2019 07:00:00 17,2 12,9 4 2 NW 1017,3 29
17.06.2019 06:00:00 16,8 12,3 11 6 NW 1017,1 28
17.06.2019 05:00:00 17,4 12,7 15 8 N 1016,5 30
17.06.2019 04:00:00 17,5 12,6 13 7 N 1017,0 30
17.06.2019 03:00:00 17,6 14,3 11 6 W 1017,3 30
17.06.2019 02:00:00 18,0 11,8 2 1 NW 1017,7 30
17.06.2019 01:00:00 18,3 12,4 5 3 W 1017,8 30
17.06.2019 00:00:00 19,4 14,2 8 4 WSW 1018,1 30
16.06.2019 23:00:00 20,4 14,7 11 6 WSW 1018,4 30
16.06.2019 22:00:00 20,6 15,0 16 9 WSW 1017,9 30
16.06.2019 21:00:00 20,7 16,7 16 9 WSW 1017,6 30
16.06.2019 20:00:00 21,6 16,7 24 13 WSW 1017,9 30
16.06.2019 19:00:00 22,2 16,6 22 12 WSW 1017,6 30
16.06.2019 18:00:00 22,6 16,2 28 15 WSW 1018,0 30
16.06.2019 17:00:00 23,5 16,7 29 16 WSW 1018,3 35
16.06.2019 16:00:00 23,3 17,4 26 14 SW 1018,8 30
16.06.2019 15:00:00 23,9 16,9 26 14 WSW 1019,4 30
16.06.2019 14:00:00 24,0 15,4 28 15 WSW 1019,9 30
16.06.2019 13:00:00 23,1 17,1 16 9 SSW 1020,5 30
16.06.2019 12:00:00 23,0 15,8 13 7 SSW 1020,6 23
16.06.2019 11:00:00 22,7 15,4 11 6 SSE 1020,7 25
16.06.2019 10:00:00 22,6 15,9 8 4 SSE 1020,8 23
16.06.2019 09:00:00 21,5 15,6 8 4 NE 1020,7 18
16.06.2019 08:00:00 19,2 14,9 13 7 N 1020,3 27
16.06.2019 07:00:00 17,4 14,5 8 4 N 1020,0 17
16.06.2019 06:00:00 16,2 14,0 5 3 NNW 1019,9 25
16.06.2019 05:00:00 17,1 14,7 0 0 N 1020,0 17
16.06.2019 04:00:00 16,9 14,5 4 2 NNW 1020,4 23
16.06.2019 03:00:00 17,4 14,9 8 4 NW 1020,5 30
16.06.2019 02:00:00 17,7 15,0 8 4 NNW 1020,9 25
16.06.2019 01:00:00 18,3 15,5 8 4 W 1020,8 24
16.06.2019 00:00:00 18,8 15,8 5 3 W 1020,6 21
15.06.2019 23:00:00 19,7 16,2 9 5 ENE 1020,2 30
15.06.2019 22:00:00 19,8 16,1 11 6 E 1019,3 30
15.06.2019 21:00:00 20,4 16,1 13 7 E 1018,7 30
15.06.2019 20:00:00 20,9 16,0 18 10 ESE 1018,2 25
15.06.2019 19:00:00 21,7 16,8 24 13 ESE 1017,5 25
15.06.2019 18:00:00 21,2 17,5 22 12 ESE 1017,2 19
15.06.2019 17:00:00 21,6 18,0 21 11 E 1017,2 12
15.06.2019 16:00:00 22,0 18,2 18 10 ESE 1017,0 10
15.06.2019 15:00:00 22,7 17,8 18 10 ESE 1016,7 15
15.06.2019 14:00:00 22,8 17,4 18 10 ESE 1017,0 16
15.06.2019 13:00:00 22,6 17,7 13 7 SE 1017,0 15
15.06.2019 12:00:00 22,4 18,2 15 8 SSE 1016,6 12
15.06.2019 11:00:00 23,2 17,4 16 9 ESE 1016,3 12
15.06.2019 10:00:00 23,0 17,5 8 4 ENE 1016,1 11
15.06.2019 09:00:00 21,4 15,9 8 4 NE 1015,9 13
15.06.2019 08:00:00 18,4 14,3 13 7 N 1015,4 15
15.06.2019 07:00:00 17,6 14,5 9 5 N 1014,7 18
15.06.2019 06:00:00 17,3 13,8 15 8 N 1014,1 15
15.06.2019 05:00:00 17,2 13,7 13 7 N 1013,9 25
15.06.2019 04:00:00 17,3 13,8 4 2 N 1013,8 20
15.06.2019 03:00:00 18,6 15,1 4 2 W 1013,7 19
15.06.2019 02:00:00 19,1 14,8 0 0 N 1013,5 30
15.06.2019 01:00:00 19,7 15,7 5 3 W 1013,9 15
15.06.2019 00:00:00 20,2 15,2 13 7 WSW 1013,8 19
14.06.2019 23:00:00 20,5 14,6 15 8 WSW 1013,3 25
14.06.2019 22:00:00 20,9 13,3 22 12 W 1012,2 24
14.06.2019 21:00:00 21,4 14,7 26 14 WSW 1011,7 27
14.06.2019 20:00:00 22,0 16,5 26 14 WSW 1011,2 13
14.06.2019 19:00:00 22,4 17,0 31 17 WSW 1010,9 14
14.06.2019 18:00:00 23,1 16,7 34 18 WSW 1010,6 26
14.06.2019 17:00:00 23,5 16,7 35 19 WSW 1010,0 19
14.06.2019 16:00:00 22,6 16,8 37 20 WSW 1010,0 21
14.06.2019 15:00:00 23,5 16,9 44 24 WSW 1010,0 20
14.06.2019 14:00:00 24,2 14,7 39 21 WSW 1009,3 19
14.06.2019 13:00:00 22,3 16,0 18 10 WSW 1009,9 22
14.06.2019 12:00:00 25,6 13,5 9 5 SSE 1008,4 24
14.06.2019 11:00:00 23,8 14,0 16 9 W 1009,2 25
14.06.2019 10:00:00 21,6 11,6 13 7 NNE 1008,5 28
14.06.2019 09:00:00 21,7 12,0 9 5 N 1008,9 26
14.06.2019 08:00:00 21,1 10,3 4 2 SW 1008,5 30
14.06.2019 07:00:00 19,2 9,0 11 6 NNE 1007,6 30
14.06.2019 06:00:00 18,8 7,8 16 9 NNE 1007,5 30
14.06.2019 05:00:00 18,9 6,5 15 8 NNE 1008,2 35
14.06.2019 04:00:00 18,9 5,3 21 11 N 1009,1 30
14.06.2019 03:00:00 18,5 4,9 21 11 N 1010,1 30
14.06.2019 02:00:00 18,1 5,0 15 8 NNE 1011,5 35
14.06.2019 01:00:00 18,3 5,5 15 8 NNE 1012,6 30
14.06.2019 00:00:00 19,5 11,1 18 10 ENE 1013,1 30
13.06.2019 23:00:00 19,7 9,5 22 12 ENE 1013,0 35
13.06.2019 22:00:00 19,5 11,3 22 12 ENE 1013,0 30
13.06.2019 21:00:00 19,8 10,3 24 13 ENE 1012,5 30
13.06.2019 20:00:00 19,6 12,7 28 15 E 1012,3 25
13.06.2019 19:00:00 20,1 13,6 26 14 E 1012,6 30
13.06.2019 18:00:00 21,0 13,6 26 14 E 1013,1 30
13.06.2019 17:00:00 21,3 12,5 22 12 ESE 1013,7 30
13.06.2019 16:00:00 20,8 13,2 26 14 E 1014,0 30
13.06.2019 15:00:00 20,2 14,4 24 13 ESE 1014,5 30
13.06.2019 14:00:00 20,9 14,8 22 12 ESE 1014,7 30
13.06.2019 13:00:00 20,8 13,7 18 10 ESE 1015,0 30
13.06.2019 12:00:00 20,4 14,4 16 9 SE 1015,6 30
13.06.2019 11:00:00 20,9 12,7 15 8 ESE 1015,4 30
13.06.2019 10:00:00 20,3 12,6 9 5 NE 1015,6 20
13.06.2019 09:00:00 17,4 11,2 18 10 N 1015,4 30
13.06.2019 08:00:00 15,4 11,2 16 9 N 1015,4 30
13.06.2019 07:00:00 13,8 10,4 16 9 N 1015,1 27
13.06.2019 06:00:00 13,2 10,9 16 9 N 1015,1 22
13.06.2019 05:00:00 13,9 11,4 13 7 N 1015,3 25
13.06.2019 04:00:00 14,4 11,9 15 8 N 1015,3 30
13.06.2019 03:00:00 14,6 11,9 15 8 N 1015,6 30
13.06.2019 02:00:00 15,1 11,9 11 6 N 1015,7 30
13.06.2019 01:00:00 16,0 12,4 11 6 N 1016,0 30
13.06.2019 00:00:00 16,7 12,4 5 3 N 1016,0 30
12.06.2019 23:00:00 17,4 12,9 4 2 WNW 1016,1 30
12.06.2019 22:00:00 17,5 13,2 8 4 W 1015,5 30
12.06.2019 21:00:00 18,9 13,1 11 6 WSW 1015,1 30
12.06.2019 20:00:00 19,8 13,1 18 10 SW 1014,9 35
12.06.2019 19:00:00 19,8 12,6 21 11 SW 1014,6 30
12.06.2019 18:00:00 20,0 12,7 22 12 SW 1014,8 25
12.06.2019 17:00:00 20,1 12,2 22 12 SW 1014,9 35
12.06.2019 16:00:00 20,1 11,5 21 11 SW 1015,1 30
12.06.2019 15:00:00 20,0 11,4 21 11 SW 1015,4 30
12.06.2019 14:00:00 20,1 11,8 21 11 SW 1015,8 35
12.06.2019 13:00:00 19,3 11,6 24 13 SW 1015,9 30
12.06.2019 12:00:00 19,0 13,2 18 10 SW 1016,2 30
12.06.2019 11:00:00 18,3 13,1 13 7 SSW 1016,1 25
12.06.2019 10:00:00 17,9 14,0 4 2 WNW 1016,1 19
12.06.2019 09:00:00 15,3 13,4 13 7 N 1015,9 7
12.06.2019 08:00:00 13,4 12,5 15 8 N 1015,4 5
12.06.2019 07:00:00 11,9 11,6 15 8 N 1015,0 3,4
12.06.2019 06:00:00 11,4 11,1 16 9 N 1014,6 2,1
12.06.2019 05:00:00 11,5 10,9 13 7 N 1014,4 8
12.06.2019 04:00:00 12,2 11,6 11 6 N 1014,7 9
12.06.2019 03:00:00 12,5 11,9 5 3 N 1015,0 14
12.06.2019 02:00:00 13,0 12,2 8 4 NNW 1015,1 20
12.06.2019 01:00:00 13,9 12,8 2 1 NNW 1015,4 30
12.06.2019 00:00:00 14,9 12,6 4 2 E 1015,5 30
11.06.2019 23:00:00 14,6 13,0 11 6 E 1015,2 30
11.06.2019 22:00:00 14,5 12,5 18 10 E 1014,1 30
11.06.2019 21:00:00 14,5 12,7 13 7 ESE 1014,2 30
11.06.2019 20:00:00 14,4 13,2 15 8 E 1013,7 15

tt = temperature
td = dewpoint
ff = wind speed
dd = wind direction
ppp = reduced air pressure
vv = visibility

Next stations